Temperature
14 14 14 14 14 13 13 13 13 12 12 12 12 12 12 12 12 12 12 12 12 12 12 12 12 12 12 12 12 12 11 12 12 11 11 11 11 11
14 14 14 14 13 13 13 13 13 13 12 12 12 12 11 11 11 11 11 11 11 11 11 11 11 11 11 11 11 11 11 11 11 11 11 11 11 11
14 14 14 13 13 13 13 13 13 13 12 12 11 11 11 11 11 11 11 11 11 11 11 11 11 11 11 11 11 11 11 11 11 11 11 11 11 10
14 14 13 13 13 13 13 13 13 12 12 12 11 11 11 11 11 11 11 11 11 11 11 11 11 11 11 11 11 11 11 11 10 10 10 10 10 10
13 13 13 13 13 13 13 13 12 12 12 12 11 11 11 11 11 10 10 10 10 10 10 10 10 10 10 10 10 10 10 10 10 10 10 10 10 10
13 13 13 13 13 13 13 12 12 12 12 12 11 11 11 11 10 10 10 10 10 10 10 10 10 10 10 10 10 10 10 10 10 10 10 10 10 10
13 13 13 13 13 13 13 12 12 12 12 11 11 11 11 10 10 10 10 10 10 10 10 10 10 10 10 10 10 10 10 10 10 9 9 9 9 9
13 13 13 13 13 13 12 12 12 12 11 11 11 11 11 11 10 10 10 10 9 9 9 9 9 9 10 10 9 9 9 9 9 9 9 9 9 9
13 13 13 12 12 12 12 12 12 12 11 11 11 11 11 11 11 10 10 10 10 9 9 9 9 9 9 9 9 9 9 9 9 9 9 9 9 8
12 12 12 12 12 12 12 12 12 11 11 11 11 11 11 11 10 10 10 10 9 9 9 9 9 9 9 9 8 8 9 8 8 8 8 8 8 8
12 12 12 12 12 12 12 11 11 11 11 11 11 11 11 10 10 10 10 9 9 9 9 8 8 8 8 8 8 8 8 8 8 8 8 8 8 8
12 12 11 11 11 11 11 11 11 11 10 10 10 10 10 10 10 10 10 9 9 9 9 8 8 8 8 8 7 7 7 7 7 7 7 7 7 7
11 11 11 11 11 11 11 11 10 10 10 10 10 10 10 10 10 10 9 9 9 9 9 8 8 8 8 7 7 7 7 7 7 7 7 7 7 7
11 11 11 11 11 10 10 10 10 10 10 9 9 9 10 10 9 9 9 9 9 9 9 8 8 8 8 7 7 7 7 7 7 7 7 6 6 6
11 11 10 10 10 10 10 10 10 9 9 9 9 9 9 9 9 9 9 9 9 9 8 8 8 8 7 7 7 7 6 6 6 6 6 6 6 6
10 10 10 10 10 10 10 10 9 9 9 9 9 8 8 8 8 8 9 9 8 8 8 8 8 7 7 7 7 6 6 6 6 6 6 6 6 6
10 10 10 10 10 10 9 9 9 9 9 8 8 8 8 8 8 8 8 8 8 8 8 8 7 7 7 7 6 6 6 6 6 6 5 6 6 5
10 10 10 10 10 9 9 9 9 9 9 8 8 8 8 8 8 8 7 7 7 7 7 7 7 7 7 6 6 6 6 6 5 5 5 5 5 5
9 9 9 9 9 9 9 9 9 9 8 8 8 8 8 8 8 7 7 7 7 7 7 7 6 6 6 6 6 6 5 5 5 5 5 5 5 5
9 9 9 9 9 9 9 9 8 8 8 8 8 8 8 8 7 7 7 7 7 7 6 6 6 6 6 6 5 5 5 5 5 5 5 4 4 4
9 9 9 9 9 9 9 8 8 8 8 8 8 8 8 7 7 7 7 7 6 6 6 6 6 6 6 5 5 5 5 5 5 4 4 4 4 4
9 9 9 9 9 9 8 8 8 8 8 8 8 8 7 7 7 7 7 6 6 6 6 6 6 5 5 5 5 5 5 5 4 4 4 4 3 3
9 9 9 9 9 8 8 8 8 8 8 8 8 7 7 7 7 6 6 6 6 6 6 5 5 5 5 5 5 5 5 4 4 4 4 4 3 3
Wind_Speed
0 1 1 1 1 1 1 1 2 1 1 2 1 2 5 6 6 6 5 5 5 6 6 6 6 7 7 8 9 10 10 10 10 10 10 9 9 9
0 1 0 0 1 1 1 1 1 2 1 1 2 3 3 5 5 5 5 5 4 4 4 4 4 5 5 6 7 8 9 9 9 10 9 9 9 9
1 1 1 1 1 1 1 0 0 2 2 0 2 3 3 3 4 4 5 5 3 3 2 2 3 4 4 5 6 7 7 8 8 9 9 9 8 8
1 2 2 2 2 1 1 1 1 1 3 2 1 2 2 3 3 2 3 3 3 2 2 2 3 3 4 4 5 5 6 7 7 7 7 8 8 8
1 1 2 2 2 2 2 2 2 2 2 2 2 1 1 2 2 1 1 2 2 3 4 2 2 2 3 3 4 4 5 5 5 6 6 6 7 7
1 1 1 1 2 3 3 3 3 3 2 2 2 2 2 2 2 1 1 1 1 1 3 3 2 1 1 3 3 4 4 4 4 5 5 6 6 6
0 1 1 2 2 2 2 2 2 2 2 2 2 2 2 2 2 2 2 1 1 1 1 2 3 2 1 0 1 2 3 3 4 4 4 4 5 5
1 1 1 2 2 2 2 2 2 2 3 2 2 3 3 3 3 3 2 1 2 1 1 1 2 2 2 2 1 1 1 2 3 3 3 3 4 4
2 1 1 1 2 2 2 1 0 1 2 3 3 3 3 3 4 3 2 2 3 2 2 1 0 1 2 2 3 2 1 1 1 2 2 3 3 3
1 1 2 2 1 1 2 1 1 2 3 3 3 2 2 3 4 4 4 2 1 1 2 1 1 1 1 2 3 3 2 1 1 1 2 3 3 3
2 1 2 2 2 2 1 1 1 1 1 1 2 2 2 2 2 2 2 2 1 2 1 1 1 1 1 2 2 4 3 3 3 3 3 3 3 3
1 0 1 2 2 2 2 1 1 1 1 0 0 1 1 1 2 3 3 3 2 2 2 1 1 0 2 1 2 2 2 2 3 3 3 3 2 1
2 1 1 3 2 1 2 2 2 1 1 2 2 2 1 1 2 2 2 2 3 2 2 2 2 1 1 2 2 1 1 1 1 2 3 2 2 1
2 2 2 3 2 2 2 2 2 0 1 1 1 2 2 2 2 2 2 2 2 3 3 2 2 2 2 2 2 2 1 1 0 0 1 2 2 2
1 1 2 2 2 2 3 3 2 1 2 2 2 2 2 2 2 2 2 2 1 0 1 1 2 2 2 2 2 2 2 2 0 1 1 1 1 1
2 2 2 2 2 2 2 3 3 3 3 3 2 2 1 1 1 2 1 1 0 2 2 1 2 2 2 2 2 2 2 2 1 1 1 1 1 1
2 1 2 2 2 2 3 3 3 3 3 3 3 3 2 2 2 2 2 2 2 2 1 1 2 2 1 2 2 2 2 2 1 1 1 2 2 1
4 3 4 4 4 4 4 4 4 4 4 4 4 4 3 3 3 2 2 3 3 3 2 2 1 0 1 2 2 3 2 2 2 2 1 1 3 2
4 4 4 5 5 5 4 4 4 4 4 4 4 4 4 4 3 3 3 2 2 2 2 2 2 3 2 3 3 3 3 2 2 2 2 2 3 4
4 4 5 5 4 5 4 4 4 4 4 4 4 4 4 3 3 3 3 3 2 2 2 2 2 3 4 4 3 3 4 3 2 2 3 2 2 3
5 5 5 4 4 4 4 4 4 4 4 4 4 4 4 3 3 3 3 4 3 2 3 3 3 3 2 1 1 3 3 4 5 3 2 2 2 2
5 5 5 5 4 4 4 3 3 3 4 4 4 4 4 4 4 4 4 3 3 3 3 3 2 1 1 3 4 4 3 3 3 5 4 4 3 3
5 5 4 4 4 3 3 4 4 4 4 4 4 4 4 4 3 3 3 3 3 3 2 2 1 1 2 3 3 3 4 3 2 2 3 5 6 7
Wind_Direction
122 167 145 154 125 118 127 138 138 164 226 155 116 114 122 117 117 111 105 100 89 74 61 51 45 45 41 38 36 34 32 30 29 28 31 31 30 29
94 56 44 100 120 124 175 275 110 146 179 173 148 152 132 126 127 121 110 111 97 83 67 52 45 46 43 39 35 32 30 29 27 26 28 30 30 29
199 181 185 157 145 148 127 59 45 116 132 133 127 141 131 127 129 136 119 127 115 108 88 62 48 46 41 36 32 29 26 23 24 25 29 31 31 29
231 193 185 161 150 138 127 134 125 131 138 148 158 147 147 148 145 154 135 142 134 141 139 91 67 54 41 33 29 25 25 24 23 24 29 28 26 25
231 217 199 164 170 166 160 153 158 144 134 150 165 158 153 141 129 139 137 157 172 172 165 147 110 71 51 35 27 23 22 22 23 26 27 28 26 23
213 211 219 176 172 170 167 169 158 156 156 157 172 173 169 168 143 170 246 260 226 155 145 159 157 135 69 38 27 20 17 18 21 25 27 27 25 23
223 105 67 73 90 109 126 143 150 164 166 175 190 190 190 177 190 192 188 223 251 192 156 168 157 139 122 12 352 9 18 15 16 23 27 26 22 21
189 166 139 112 97 106 114 118 133 169 186 185 199 204 210 196 182 178 181 188 273 241 154 219 148 145 137 153 194 211 2 13 18 17 18 24 23 21
230 201 211 173 127 155 162 160 218 234 203 190 204 216 205 195 175 181 195 200 224 217 125 251 203 182 161 176 190 190 214 330 345 8 10 7 8 7
254 194 168 164 161 152 142 155 241 257 235 214 206 227 188 160 166 182 193 184 208 234 138 221 241 234 178 166 191 193 211 256 293 321 335 340 336 343
255 233 166 167 163 143 135 185 226 272 335 131 146 132 127 130 127 130 151 143 232 261 209 183 239 260 240 211 203 204 215 238 267 285 302 311 316 323
259 240 118 136 151 159 176 195 223 239 179 132 151 236 187 184 165 163 177 182 201 250 235 177 214 203 314 279 183 195 236 263 263 282 300 300 302 337
209 205 169 154 164 196 217 217 222 204 195 200 223 224 208 186 175 181 172 177 195 237 224 175 210 218 216 271 280 226 217 268 251 295 292 298 294 256
217 202 193 180 194 219 225 212 195 151 236 221 223 217 210 211 209 182 169 163 179 208 212 172 194 203 212 262 277 289 318 320 237 308 316 319 301 280
223 196 176 182 183 211 225 215 197 211 223 230 234 229 219 203 162 135 121 108 74 308 240 190 168 191 190 220 246 267 304 313 355 3 0 343 285 308
228 192 172 176 197 220 226 231 221 214 210 224 232 231 225 192 180 169 169 155 122 314 333 320 170 170 200 219 221 253 250 254 297 311 309 318 337 328
192 190 194 196 211 219 224 216 211 216 221 219 216 211 209 203 207 199 190 188 200 223 265 294 103 106 160 202 227 244 248 263 252 271 293 300 288 298
184 199 207 209 214 217 218 218 215 215 215 209 206 201 204 205 205 211 205 197 202 211 216 211 168 87 348 334 242 229 248 260 265 266 252 271 285 290
194 211 214 217 219 221 219 215 217 218 210 205 205 201 201 202 200 205 206 204 211 217 221 213 194 182 218 267 290 254 231 250 256 271 260 250 256 267
206 214 220 221 221 222 221 218 215 208 205 204 203 204 202 201 200 198 196 200 211 225 245 242 214 202 213 228 250 274 239 217 223 248 264 274 277 284
216 221 224 225 228 225 222 216 211 208 205 201 201 201 202 200 205 202 195 203 208 217 229 241 239 215 190 168 268 276 279 243 230 235 240 253 286 290
220 220 221 224 224 221 213 208 211 212 208 207 208 205 205 201 203 203 199 197 206 218 229 239 232 200 189 216 238 254 262 272 262 261 262 243 213 227
217 219 221 221 216 214 209 208 212 215 212 212 212 207 201 201 201 201 203 200 201 211 216 225 234 231 218 212 231 250 256 256 258 269 276 273 262 263
Height
1541 1541 1541 1541 1542 1542 1542 1542 1543 1542 1543 1543 1543 1543 1542 1541 1541 1540 1540 1539 1538 1538 1537 1536 1535 1534 1533 1532 1531 1530 1529 1528 1527 1526 1525 1524 1523 1521
1540 1540 1540 1541 1541 1541 1541 1541 1541 1541 1541 1542 1542 1542 1542 1541 1541 1540 1539 1539 1538 1538 1537 1536 1535 1534 1533 1532 1531 1530 1529 1528 1527 1526 1525 1523 1522 1521
1539 1539 1539 1539 1539 1540 1540 1540 1540 1540 1540 1540 1541 1541 1541 1540 1539 1539 1539 1538 1538 1537 1536 1536 1535 1534 1533 1532 1531 1530 1529 1528 1527 1525 1524 1523 1522 1521
1537 1538 1538 1538 1538 1538 1538 1538 1538 1538 1538 1538 1539 1539 1539 1539 1539 1538 1538 1537 1537 1536 1536 1535 1534 1533 1532 1531 1530 1529 1528 1527 1526 1525 1524 1523 1522 1521
1536 1536 1536 1536 1536 1536 1537 1537 1537 1537 1537 1537 1537 1538 1538 1538 1537 1537 1537 1536 1536 1535 1535 1534 1533 1532 1532 1531 1530 1529 1528 1526 1525 1524 1523 1522 1521 1520
1535 1535 1535 1535 1535 1535 1534 1535 1535 1535 1535 1535 1536 1536 1536 1536 1536 1535 1535 1535 1535 1535 1534 1533 1533 1532 1531 1530 1529 1528 1527 1525 1524 1523 1522 1521 1520 1519
1533 1533 1533 1533 1533 1533 1532 1532 1533 1533 1533 1533 1534 1534 1534 1534 1534 1534 1534 1534 1534 1533 1533 1532 1531 1530 1530 1529 1528 1527 1525 1524 1523 1522 1521 1520 1519 1518
1530 1530 1530 1530 1531 1530 1530 1530 1531 1531 1531 1531 1531 1532 1531 1532 1532 1532 1532 1531 1531 1532 1531 1531 1530 1529 1528 1527 1527 1526 1524 1523 1522 1521 1520 1519 1518 1516
1527 1527 1528 1528 1528 1527 1527 1527 1528 1528 1529 1529 1529 1529 1529 1529 1529 1529 1529 1529 1529 1529 1529 1528 1528 1527 1527 1526 1525 1524 1523 1522 1520 1519 1518 1517 1516 1515
1525 1525 1525 1524 1524 1524 1524 1524 1524 1525 1525 1525 1526 1526 1527 1527 1527 1527 1527 1527 1527 1527 1528 1527 1526 1525 1524 1524 1523 1522 1521 1520 1518 1517 1516 1515 1514 1513
1521 1522 1522 1521 1521 1521 1521 1521 1521 1521 1522 1522 1523 1523 1524 1524 1524 1524 1524 1524 1524 1524 1525 1524 1524 1523 1522 1522 1521 1520 1519 1518 1516 1515 1514 1513 1512 1511
1518 1518 1519 1519 1519 1518 1518 1518 1518 1518 1518 1519 1519 1520 1520 1520 1521 1521 1521 1521 1521 1521 1522 1522 1521 1521 1520 1519 1519 1518 1517 1515 1514 1513 1511 1510 1509 1508
1515 1515 1515 1516 1516 1515 1515 1515 1515 1515 1515 1515 1515 1516 1516 1516 1516 1517 1518 1518 1518 1518 1519 1519 1518 1518 1517 1516 1515 1515 1514 1513 1511 1510 1509 1507 1506 1505
1511 1512 1512 1512 1512 1512 1512 1512 1512 1512 1512 1512 1511 1511 1511 1512 1513 1513 1514 1515 1515 1515 1515 1515 1515 1515 1514 1513 1512 1511 1511 1510 1508 1507 1505 1504 1503 1502
1507 1508 1509 1509 1509 1509 1509 1509 1508 1508 1508 1508 1507 1508 1508 1509 1509 1510 1510 1511 1511 1511 1512 1512 1512 1511 1511 1510 1509 1508 1507 1506 1505 1504 1502 1501 1500 1498
1503 1504 1505 1505 1505 1505 1505 1505 1505 1505 1505 1504 1504 1504 1505 1505 1505 1506 1506 1507 1507 1507 1508 1508 1508 1507 1507 1506 1506 1504 1504 1503 1501 1500 1499 1497 1496 1495
1499 1499 1500 1500 1500 1501 1501 1501 1501 1501 1501 1501 1501 1501 1501 1501 1502 1502 1503 1503 1503 1502 1502 1503 1503 1503 1503 1503 1502 1501 1500 1499 1498 1497 1495 1493 1492 1491
1494 1494 1495 1495 1496 1496 1496 1497 1497 1497 1497 1497 1497 1497 1497 1497 1498 1499 1499 1499 1499 1498 1499 1499 1499 1499 1499 1498 1499 1497 1496 1495 1494 1493 1492 1490 1488 1487
1489 1490 1490 1491 1491 1492 1492 1492 1492 1493 1493 1493 1493 1493 1493 1494 1494 1494 1495 1495 1495 1495 1495 1495 1495 1495 1494 1493 1493 1494 1493 1491 1490 1489 1488 1486 1484 1483
1484 1485 1485 1486 1487 1487 1488 1488 1488 1488 1489 1489 1489 1489 1489 1489 1489 1490 1490 1491 1491 1491 1491 1491 1491 1491 1490 1490 1489 1489 1489 1487 1486 1485 1484 1482 1481 1480
1479 1480 1480 1481 1482 1482 1483 1483 1483 1484 1484 1484 1485 1485 1485 1485 1485 1485 1486 1486 1487 1487 1486 1487 1487 1488 1487 1486 1485 1483 1484 1483 1482 1481 1480 1479 1477 1475
1474 1475 1475 1476 1477 1477 1478 1478 1478 1479 1479 1479 1480 1480 1480 1480 1481 1481 1482 1482 1482 1482 1482 1483 1483 1483 1483 1482 1480 1479 1478 1478 1477 1477 1476 1475 1473 1471
1469 1470 1471 1471 1472 1472 1473 1473 1473 1474 1474 1474 1475 1475 1475 1476 1476 1477 1477 1478 1478 1478 1478 1478 1478 1478 1478 1477 1476 1475 1474 1473 1472 1471 1471 1470 1470 1469